Location: The Stocker AstroScience Center
(25.7579°N, 80.3725°W)
Time: 01:49:08
(UTC-04:00)

ISS - All Passes

Search period start: 28 July 2015 00:00
Search period end: 07 August 2015 00:00
Orbit: 402 x 403 km, 51.6° (Epoch: 26 July)

Date Brightness Start Highest point End Pass type
(mag) Time Alt. Az. Time Alt. Az. Time Alt. Az.
28 Jul - 07:28:09 10° NW 07:31:22 62° SW 07:34:35 10° SSE daylight
28 Jul - 22:25:17 10° WSW 22:28:22 40° NW 22:31:27 10° NNE night (unlit)
29 Jul - 06:35:17 10° NNW 06:38:26 48° NE 06:41:36 10° ESE daylight
29 Jul - 21:32:12 10° SW 21:35:25 75° SE 21:38:40 10° NE visible
30 Jul - 05:42:52 10° N 05:45:24 21° NE 05:47:59 10° E visible
30 Jul - 07:19:21 10° W 07:21:45 19° SW 07:24:04 10° S daylight
30 Jul - 20:39:45 10° S 20:42:33 28° SE 20:45:24 10° ENE visible
30 Jul - 22:16:58 10° W 22:19:02 15° NW 22:21:00 10° N visible
31 Jul - 04:51:31 10° NNE 04:52:14 11° NE 04:53:05 10° NE visible
31 Jul - 06:25:45 10° NW 06:28:53 46° SW 06:32:00 10° SSE daylight
31 Jul - 19:48:31 10° SSE 19:49:42 12° SE 19:51:01 10° ESE daylight
31 Jul - 21:22:58 10° WSW 21:25:56 32° NW 21:28:53 10° NNE visible
01 Aug - 05:32:45 10° NW 05:35:59 63° NE 05:39:12 10° SE visible
01 Aug - 20:29:42 10° SW 20:32:57 82° NW 20:36:12 10° NE visible
02 Aug - 04:40:11 10° NNW 04:42:58 26° NE 04:45:46 10° ESE visible
02 Aug - 06:17:17 10° W 06:19:15 15° SW 06:21:06 10° SSW visible
02 Aug - 19:37:04 10° SSW 19:40:03 35° SE 19:43:05 10° ENE daylight
02 Aug - 21:15:02 10° WNW 21:16:37 13° NW 21:18:06 10° NNW visible
03 Aug - 03:48:19 10° N 03:49:50 13° NE 03:51:27 10° ENE night (unlit)
03 Aug - 05:23:23 10° WNW 05:26:24 35° SW 05:29:23 10° SSE visible
03 Aug - 18:45:19 10° SSE 18:47:12 15° SE 18:49:11 10° E daylight
03 Aug - 20:20:41 10° WSW 20:23:29 25° NW 20:26:15 10° NNE daylight
04 Aug - 04:30:15 10° NW 04:33:30 84° NE 04:36:45 10° SE night (unlit)
04 Aug - 19:27:16 10° SW 19:30:28 62° NW 19:33:42 10° NE daylight
05 Aug - 03:37:34 10° NNW 03:40:32 32° NE 03:43:30 10° ESE night (unlit)
05 Aug - 05:15:28 10° WSW 05:16:45 12° SW 05:17:53 10° SSW night (unlit)
05 Aug - 18:34:26 10° SSW 18:37:34 47° SE 18:40:42 10° NE daylight
05 Aug - 20:13:27 10° NW 20:14:13 10° NW 20:14:51 10° NNW daylight
06 Aug - 02:45:26 10° N 02:47:25 15° NE 02:49:30 10° E night (unlit)
06 Aug - 04:21:03 10° WNW 04:23:53 27° SW 04:26:42 10° S night (unlit)
06 Aug - 17:42:22 10° S 17:44:41 19° SE 17:47:06 10° E daylight
06 Aug - 19:18:28 10° W 19:21:03 21° NW 19:23:34 10° N daylight
